This is the latest recevied weather packets stored in our database for station/object AC2JK-WX. If no packets are shown the sender has not sent any weather packets the latest 1 day(s).
| Time | Temp. | Humidity | Pressure | Rain* | Wind** | Luminosity | Snow |
|---|---|---|---|---|---|---|---|
| 1778032630 | 9.44° C | 97% | 1010 hPa | 0.51 mm | - | - | - |
| 1778032029 | 9.44° C | 96% | 1010 hPa | 0.51 mm | - | - | - |
| 1778031729 | 9.44° C | 96% | 1010 hPa | 0.76 mm | - | - | - |
| 1778031430 | 10° C | 96% | 1010 hPa | 1.02 mm | - | - | - |
| 1778030530 | 10° C | 96% | 1010 hPa | 1.52 mm | - | - | - |
| 1778030232 | 10° C | 96% | 1010 hPa | 1.78 mm | - | - | - |
| 1778029930 | 9.44° C | 96% | 1010 hPa | 2.03 mm | - | - | - |
| 1778029631 | 9.44° C | 96% | 1010 hPa | 2.54 mm | - | - | - |
| 1778029330 | 9.44° C | 96% | 1010 hPa | 2.54 mm | - | - | - |
| 1778029030 | 9.44° C | 96% | 1010 hPa | 2.79 mm | - | - | - |
| 1778028429 | 9.44° C | 96% | 1010 hPa | 3.56 mm | - | - | - |
| 1778027829 | 9.44° C | 96% | 1010 hPa | 3.56 mm | - | - | - |
| 1778027233 | 9.44° C | 95% | 1010 hPa | 3.56 mm | - | - | - |
| 1778026930 | 9.44° C | 95% | 1010 hPa | 3.05 mm | - | - | - |
| 1778023930 | 10° C | 95% | 1009 hPa | 2.03 mm | - | - | - |
| 1778023630 | 10° C | 95% | 1009 hPa | 1.78 mm | - | - | - |
| 1778023330 | 10° C | 95% | 1009 hPa | 2.03 mm | - | - | - |
| 1778022730 | 10° C | 95% | 1009 hPa | 1.78 mm | - | - | - |
| 1778019131 | 10.56° C | 93% | 1009 hPa | 3.3 mm | - | - | - |
| 1778017630 | 10.56° C | 93% | 1009 hPa | 3.05 mm | - | - | - |
| 1778017330 | 11.11° C | 93% | 1009 hPa | 3.05 mm | - | - | - |
| 1778014030 | 11.67° C | 89% | 1008 hPa | 0.25 mm | - | - | - |
| 1778013730 | 12.22° C | 88% | 1008 hPa | 0 mm | - | - | - |
| 1778012530 | 12.78° C | 84% | 1007 hPa | 0 mm | - | - | - |
| 1778011930 | 12.78° C | 85% | 1007 hPa | 0 mm | - | - | - |
* Rain latest hour (hover to see other rain measurements)
** Current wind speed in m/s (hover to see current wind gust speed)